Live-Position
3D-Globus wird geladen...
Über Starlink 4147
Group: 3 satellites
Beschreibung wird geladen...
Nächste Überflüge
Passes for default location (London). Set your location on the main map for personalized predictions.
Höhenverlauf
Loading altitude history...
No altitude history available
Zweizeiliger Elementsatz
1 53256U 22086Q 26121.55448270 -.00000864 00000-0 -36206-4 0 9997
2 53256 53.2172 316.8016 0001471 95.1061 265.0099 15.08839275209047
Epoch: 1. Mai 2026 •
Age: 4 hours
Aktueller Status
Höhe 545.2 km
Geschwindigkeit 7.60 km/s
Subsatellitenpunkt 52.60°N,
79.65°W
Startdatum 24. Juli 2022
Alter 3.7 years
Typ internet
Startgruppe
Falcon 9 •
Group 4-25 •
45 satellites
Starlink 4056
53242
Starlink 4047 53243
Starlink 4125 53244
Starlink 4131 53246
Starlink 4061 53247
Starlink 4135 53248
Starlink 4128 53249
Starlink 4059 53250
Starlink 4129 53251
Starlink 4132 53252
Starlink 4133 53253
Starlink 4134 53254
Starlink 4142 53255
Starlink 4144 53257
Starlink 4127 53258
Starlink 4140 53259
Starlink 4062 53261
Starlink 4085 53262
Starlink 4130 53263
Starlink 3950 53264
...and 24 more
Technische Details
Klassifizierung Payload
Masse 297.00 kg
Trockenmasse 275.00 kg
Gesamtmasse 297.00 kg
Länge 0.20 m
Durchmesser 2.80 m
Spannweite 9.00 m
Form Box + pan
Hersteller SPXS
Bus-Typ Starlink
Phasenstatus In Orbit
Besitzer/Staat SPXS/US
Most Searched
Loading...